User: anonymous   Login
Location: Unspecified
(0.0000°N, 0.0000°E)
Time: 12:19:54
(UTC+01:00)
Language:

ARIANE 5 R/B - Orbit

View from above orbital plane
View from above orbital plane
View from above satellite
View from above satellite

Ground track
Ground track

The orbit data is extracted from the following two-line orbital elements,

1 28379U 04027B   17326.34938727 -.00000005 +00000-0 -13893-2 0  9997
2 28379 006.9459 278.3308 7298156 174.5462 343.7881 02.07926483101414
Epoch (UTC): 22 November 2017 08:23:07
Eccentricity: 0.7298156
inclination: 6.9459°
perigee height: 627 km
apogee height: 38475 km
right ascension of ascending node: 278.3308°
argument of perigee: 174.5462°
revolutions per day: 2.07926483
mean anomaly at epoch: 343.7881°
orbit number at epoch: 10141

The dashed part of the orbit path shows where the satellite is in the earth's shadow,  

DLR